This is the latest recevied weather packets stored in our database for station/object KD7AWQ. If no packets are shown the sender has not sent any weather packets the latest 10 day(s).
| Time | Temp. | Humidity | Pressure | Rain* | Wind** | Luminosity | Snow |
|---|---|---|---|---|---|---|---|
| 1788119070 | 32.22° C | 32% | 1188.4 hPa | 0 mm | - | 1174 W/m² | - |
| 1788118770 | 31.67° C | 33% | 1188.8 hPa | 0 mm | - | 1219 W/m² | - |
| 1788118469 | 31.11° C | 33% | 1188.4 hPa | 0 mm | - | 1245 W/m² | - |
| 1788118165 | 31.67° C | 33% | 1188.7 hPa | 0 mm | - | 1011 W/m² | - |
| 1788117860 | 31.11° C | 33% | 1188.9 hPa | 0 mm | - | 911 W/m² | - |
| 1788117555 | 31.11° C | 33% | 1188.8 hPa | 0 mm | - | 658 W/m² | - |
| 1788117255 | 31.67° C | 33% | 1188.6 hPa | 0 mm | - | 1004 W/m² | - |
| 1788116957 | 31.67° C | 33% | 1188.8 hPa | 0 mm | - | 1047 W/m² | - |
| 1788116646 | 31.11° C | 33% | 1188.7 hPa | 0 mm | - | 1060 W/m² | - |
| 1788116345 | 30.56° C | 34% | 1189.2 hPa | 0 mm | - | 1204 W/m² | - |
| 1788116040 | 30.56° C | 34% | 1189.2 hPa | 0 mm | - | 1156 W/m² | - |
| 1788115735 | 30.56° C | 35% | 1189.2 hPa | 0 mm | - | 1065 W/m² | - |
| 1788115434 | 30° C | 35% | 1189 hPa | 0 mm | - | 735 W/m² | - |
| 1788115134 | 30.56° C | 35% | 1189.5 hPa | 0 mm | - | 1089 W/m² | - |
| 1788114829 | 30.56° C | 35% | 1189.5 hPa | 0 mm | - | 902 W/m² | - |
| 1788114524 | 30.56° C | 35% | 1189.7 hPa | 0 mm | - | 1026 W/m² | - |
| 1788114220 | 30° C | 35% | 1189.3 hPa | 0 mm | - | 1015 W/m² | - |
| 1788113916 | 30° C | 35% | 1189.6 hPa | 0 mm | - | 1007 W/m² | - |
| 1788113611 | 30° C | 35% | 1189.7 hPa | 0 mm | - | 1010 W/m² | - |
| 1788113311 | 29.44° C | 37% | 1189.6 hPa | 0 mm | - | 1040 W/m² | - |
| 1788113005 | 30° C | 36% | 1189.7 hPa | 0 mm | - | 1084 W/m² | - |
| 1788112705 | 30° C | 36% | 1189.8 hPa | 0 mm | - | 1103 W/m² | - |
| 1788112399 | 30° C | 34% | 1189.7 hPa | 0 mm | - | 915 W/m² | - |
| 1788112095 | 29.44° C | 35% | 1189.9 hPa | 0 mm | - | 1041 W/m² | - |
| 1788111790 | 30° C | 36% | 1189.7 hPa | 0 mm | - | 996 W/m² | - |
* Rain latest hour (hover to see other rain measurements)
** Current wind speed in m/s (hover to see current wind gust speed)